EW3700 Weather Reports


time (UTC)temp
C
wind
direction
speed
KPH
gust
KPH
rain 1hr
cm
rain 24hr
cm
rain mn
cm
humidity
%
barometer
mb
20260507160037 10 270 4.8 12.9 0.00 0.00 0.00 35 1011.8
20260507155017 10 248 1.6 6.4 0.00 0.00 0.00 35 1011.8
20260507154017 10 0.0 4.8 0.00 0.00 0.00 39 1011.7
20260507153017 8 248 1.6 6.4 0.00 0.00 0.00 37 1011.8
20260507152038 8 248 1.6 12.9 0.00 0.00 0.00 40 1011.9
20260507151017 8 248 1.6 4.8 0.00 0.00 0.00 41 1012.0
20260507150017 8 225 1.6 9.7 0.00 0.00 0.00 42 1011.9
20260507145037 8 225 1.6 4.8 0.00 0.00 0.00 41 1012.0
20260507144017 8 0.0 1.6 0.00 0.00 0.00 43 1012.0
20260507143017 8 0.0 4.8 0.00 0.00 0.00 45 1012.1
20260507142017 8 0.0 3.2 0.00 0.00 0.00 48 1012.2
20260507141017 7 270 1.6 4.8 0.00 0.00 0.00 47 1012.2
20260507140017 7 0.0 1.6 0.00 0.00 0.00 49 1012.3
20260507135037 7 0.0 1.6 0.00 0.00 0.00 49 1012.3
20260507134017 7 0.0 1.6 0.00 0.00 0.00 55 1012.3
20260507133017 6 0.0 4.8 0.00 0.00 0.00 57 1012.4
20260507132017 6 0.0 3.2 0.00 0.00 0.00 59 1012.3
20260507131017 5 0.0 0.0 0.00 0.00 0.00 65 1012.4
20260507130017 5 0.0 0.0 0.00 0.00 0.00 68 1012.5
20260507125037 3 0.0 1.6 0.00 0.00 0.00 74 1012.4
20260507124017 2 0.0 0.0 0.00 0.00 0.00 84 1012.5
20260507123017 1 0.0 0.0 0.00 0.00 0.00 89 1012.4
20260507122017 0 0.0 0.0 0.00 0.00 0.00 90 1012.3
20260507121037 0 0.0 0.0 0.00 0.00 0.00 91 1012.3
20260507120022 -1 0.0 0.0 0.00 0.00 0.00 89 1012.2
20260507115016 -1 0.0 0.0 0.00 0.00 0.00 89 1012.1
20260507114037 -1 0.0 0.0 0.00 0.00 0.00 88 1012.1
20260507113023 -1 0.0 0.0 0.00 0.00 0.00 88 1012.1
20260507112016 -1 0.0 0.0 0.00 0.00 0.00 88 1012.0
20260507111016 -1 0.0 0.0 0.00 0.00 0.00 87 1012.0
20260507110016 -1 0.0 0.0 0.00 0.00 0.00 87 1012.0
20260507105016 -1 0.0 0.0 0.00 0.00 0.00 86 1012.1
20260507104021 -1 0.0 0.0 0.00 0.00 0.00 86 1012.1
20260507103036 -1 0.0 0.0 0.00 0.00 0.00 86 1012.1
20260507102017 -1 0.0 0.0 0.00 0.00 0.00 86 1012.0
20260507101016 -1 0.0 0.0 0.00 0.00 0.00 85 1012.1
20260507100016 -1 0.0 0.0 0.00 0.00 0.00 85 1012.1
20260507095041 0 0.0 0.0 0.00 0.00 0.00 85 1012.1
20260507094017 0 0.0 0.0 0.00 0.00 0.00 85 1012.2
20260507093016 0 0.0 0.0 0.00 0.00 0.00 84 1012.2
20260507092016 0 0.0 0.0 0.00 0.00 0.00 83 1012.2
20260507091016 0 0.0 0.0 0.00 0.00 0.00 83 1012.2
20260507090037 0 0.0 0.0 0.00 0.00 0.00 82 1012.2
20260507085016 0 0.0 0.0 0.00 0.00 0.00 82 1012.1
20260507084017 0 0.0 0.0 0.00 0.00 0.00 82 1012.2
20260507083016 0 0.0 0.0 0.00 0.00 0.00 82 1012.1
20260507082016 0 0.0 0.0 0.00 0.00 0.00 81 1012.2
20260507081017 0 0.0 0.0 0.00 0.00 0.00 80 1012.2
20260507080016 0 0.0 0.0 0.00 0.00 0.00 79 1012.2
20260507075016 0 0.0 0.0 0.00 0.00 0.00 79 1012.4
20260507074016 0 0.0 0.0 0.00 0.00 0.00 78 1012.4
20260507073016 0 0.0 0.0 0.00 0.00 0.00 77 1012.4
20260507072016 1 0.0 0.0 0.00 0.00 0.00 75 1012.4
20260507071016 1 0.0 0.0 0.00 0.00 0.00 74 1012.7
20260507070016 1 0.0 0.0 0.00 0.00 0.00 73 1012.7
20260507065036 1 0.0 0.0 0.00 0.00 0.00 72 1012.8
20260507064016 1 0.0 0.0 0.00 0.00 0.00 71 1012.9
20260507063016 2 0.0 0.0 0.00 0.00 0.00 71 1013.0
20260507062016 2 0.0 0.0 0.00 0.00 0.00 70 1013.1
20260507061016 2 0.0 0.0 0.00 0.00 0.00 68 1013.1
20260507060016 2 0.0 0.0 0.00 0.00 0.00 67 1013.1
20260507055016 2 0.0 0.0 0.00 0.00 0.00 66 1013.2
20260507054016 3 0.0 0.0 0.00 0.00 0.00 66 1013.2
20260507053016 3 0.0 0.0 0.00 0.00 0.00 65 1013.3
20260507052016 3 0.0 0.0 0.00 0.00 0.00 65 1013.3
20260507051016 3 0.0 0.0 0.00 0.00 0.00 66 1013.3
20260507050016 3 0.0 0.0 0.00 0.00 0.00 65 1013.4
20260507045017 3 0.0 0.0 0.00 0.00 0.00 65 1013.4
20260507044016 3 0.0 0.0 0.00 0.00 0.00 65 1013.5
20260507043016 3 0.0 0.0 0.00 0.00 0.00 65 1013.5
20260507042016 3 0.0 0.0 0.00 0.00 0.00 65 1013.6
20260507041016 3 0.0 0.0 0.00 0.00 0.00 65 1013.6
20260507040041 3 0.0 0.0 0.00 0.00 0.00 65 1013.6
20260507035016 3 0.0 0.0 0.00 0.00 0.00 65 1013.6
20260507034016 3 0.0 0.0 0.00 0.00 0.00 65 1013.7
20260507033016 3 0.0 0.0 0.00 0.00 0.00 65 1013.7
20260507032036 3 0.0 0.0 0.00 0.00 0.00 64 1013.7
20260507031036 3 0.0 0.0 0.00 0.00 0.00 63 1013.8
20260507030016 3 0.0 0.0 0.00 0.00 0.00 61 1013.8
20260507025016 3 0.0 0.0 0.00 0.00 0.00 60 1013.8
20260507024016 3 0.0 0.0 0.00 0.00 0.00 59 1013.9
20260507023036 3 0.0 0.0 0.00 0.00 0.00 57 1013.9
20260507022016 4 0.0 0.0 0.00 0.00 0.00 56 1014.0
20260507021016 5 0.0 0.0 0.00 0.00 0.00 54 1014.1
20260507020017 5 0.0 0.0 0.00 0.00 0.00 53 1014.0
20260507015016 5 0.0 0.0 0.00 0.00 0.00 52 1014.0
20260507014016 5 0.0 1.6 0.00 0.00 0.00 51 1013.9
20260507013016 6 0.0 4.8 0.00 0.00 0.00 50 1013.9
20260507012016 6 0.0 3.2 0.00 0.00 0.00 50 1014.0
20260507011016 6 0.0 4.8 0.00 0.00 0.00 49 1014.0
20260507010016 6 270 1.6 11.3 0.00 0.00 0.00 49 1014.0
20260507005016 7 270 1.6 12.9 0.00 0.00 0.00 48 1014.0
20260507004016 7 270 3.2 12.9 0.00 0.00 0.00 48 1014.1
20260507003016 7 270 1.6 9.7 0.00 0.00 0.00 48 1013.9
20260507002016 7 270 1.6 12.9 0.00 0.00 0.00 48 1014.1
20260507001016 7 0.0 4.8 0.00 0.00 0.00 48 1014.0
20260507000016 7 338 3.2 16.1 0.00 0.00 0.00 47 1014.1
20260506235016 7 270 1.6 12.9 0.00 0.00 0.00 48 1014.1
20260506234016 7 270 1.6 6.4 0.00 0.00 0.00 48 1014.1
20260506233016 7 225 3.2 16.1 0.00 0.00 0.00 47 1014.2
20260506232016 7 293 1.6 12.9 0.00 0.00 0.00 47 1014.2
20260506231037 7 0.0 6.4 0.00 0.00 0.00 48 1014.2
20260506230018 7 293 3.2 11.3 0.00 0.00 0.00 47 1014.2
20260506225018 7 270 1.6 11.3 0.00 0.00 0.00 48 1014.3
20260506224018 7 270 4.8 19.3 0.00 0.00 0.00 48 1014.3
20260506223016 7 270 1.6 9.7 0.00 0.00 0.00 49 1014.3
20260506222017 6 293 3.2 14.5 0.00 0.00 0.00 49 1014.4
20260506221017 7 270 1.6 9.7 0.00 0.00 0.00 49 1014.4
20260506220017 6 270 1.6 9.7 0.00 0.00 0.00 49 1014.5
20260506215058 7 270 4.8 19.3 0.00 0.00 0.00 48 1014.6
20260506214017 6 270 3.2 12.9 0.00 0.00 0.00 49 1014.5
20260506213017 6 270 3.2 11.3 0.00 0.00 0.00 49 1014.6
20260506212017 7 0.0 3.2 0.00 0.00 0.00 50 1014.7
20260506211037 6 270 3.2 14.5 0.00 0.00 0.00 50 1014.7
20260506210017 6 270 1.6 14.5 0.00 0.00 0.00 51 1014.8
20260506205018 6 293 3.2 12.9 0.00 0.00 0.00 50 1014.9
20260506204017 6 315 3.2 14.5 0.00 0.00 0.00 51 1015.0
20260506203017 6 338 3.2 12.9 0.00 0.00 0.00 51 1015.1
20260506202017 6 293 1.6 6.4 0.00 0.00 0.00 52 1015.0
20260506201017 6 293 4.8 14.5 0.00 0.00 0.00 51 1015.1
20260506200017 6 270 1.6 14.5 0.00 0.00 0.00 52 1015.1
20260506195018 6 315 3.2 12.9 0.00 0.00 0.00 52 1015.2
20260506194017 6 270 4.8 16.1 0.00 0.00 0.00 52 1015.2
20260506193017 6 293 3.2 12.9 0.00 0.00 0.00 52 1015.2
20260506192017 5 293 1.6 9.7 0.00 0.00 0.00 51 1015.2
20260506191017 5 270 1.6 9.7 0.00 0.00 0.00 52 1015.2
20260506190018 5 315 4.8 16.1 0.00 0.00 0.00 52 1015.1
20260506185017 5 270 4.8 17.7 0.00 0.00 0.00 51 1015.1
20260506184017 5 293 3.2 11.3 0.00 0.00 0.00 53 1015.2
20260506183037 5 270 1.6 4.8 0.00 0.00 0.00 53 1015.3
20260506182017 5 338 3.2 12.9 0.00 0.00 0.00 53 1015.3
20260506181017 5 315 1.6 11.3 0.00 0.00 0.00 53 1015.2
20260506180017 5 315 4.8 16.1 0.00 0.00 0.00 52 1015.3
20260506175017 5 315 3.2 12.9 0.00 0.00 0.00 53 1015.4
20260506174017 5 293 3.2 12.9 0.00 0.00 0.00 54 1015.5
20260506173017 5 293 6.4 16.1 0.00 0.00 0.00 53 1015.5
20260506172017 5 270 6.4 22.5 0.00 0.00 0.00 52 1015.6
20260506171017 5 293 3.2 12.9 0.00 0.00 0.00 55 1015.6
20260506170017 5 293 3.2 16.1 0.00 0.00 0.00 55 1015.6
20260506165017 4 315 3.2 16.1 0.00 0.00 0.00 56 1015.7
20260506164017 4 315 4.8 11.3 0.00 0.00 0.00 55 1015.7
20260506163017 4 315 3.2 17.7 0.00 0.00 0.00 55 1015.8
20260506162017 4 270 6.4 20.9 0.00 0.00 0.00 55 1015.7
20260506161017 4 315 1.6 8.0 0.00 0.00 0.00 55 1015.7